Regional Weather Roundup
Issued by NWS

Home | Current Version | Previous Version | Graphics & Text | Print | Product List | Glossary On
Versions: 1 2 3 4 5 6 7 8 9 10 11 12 13 14 15 16 17 18 19 20 21 22 23 24 25 26 27 28 29 30 31 32 33 34 35 36 37 38 39 40 41 42 43 44 45 46 47 48 49 50
000
ASUS43 KDMX 041104
RWRIA

WEATHER ROUNDUP FOR IOWA
NATIONAL WEATHER SERVICE DES MOINES IA
  ISSUED BY NWS QUAD CITIES IA IL
500 AM CST WED MAR 04 2015

NOTE: "FAIR" INDICATES FEW OR NO CLOUDS BELOW 12,000 FEET WITH NO
SIGNIFICANT WEATHER AND/OR OBSTRUCTIONS TO VISIBILITY.

* - THESE STATIONS ARE NOT NWS STATIONS...THUS NOT UNDER NWS
QUALITY CONTROL.  THEY ALSO DO NOT REPORT WEATHER SUCH
AS PRECIPITATION OR FOG.

IAZ001>003-012>014-020>022-031>034-043>046-041200-
   NORTHWEST IOWA

CITY           SKY/WX    TMP DP  RH WIND       PRES   REMARKS
CARROLL *      CLOUDY    10   3  72 NW7       30.18R WCI   0
CHEROKEE *     PTSUNNY    9   1  70 N7        30.19R WCI  -3
DENNISON *     CLOUDY    12   5  73 NW6       30.17R WCI   3
LE MARS *      MOCLDY     9   3  78 CALM      30.20R
ORANGE CITY *  PTCLDY     9   0  66 NW5       30.16S WCI   0
SHELDON *      PTCLDY     3  -4  72 W7        30.16R WCI  -9
SIOUX CITY     PTCLDY    12   4  70 NW5       30.21R WCI   4
SPENCER        PTCLDY     5  -3  69 W8        30.16R WCI  -8
STORM LAKE *   MOCLDY     9   0  66 NW12      30.16R WCI  -6
$$

IAZ055>058-069>071-079>083-090>094-041200-
   SOUTHWEST IOWA

CITY           SKY/WX    TMP DP  RH WIND       PRES   REMARKS
ATLANTIC *     CLOUDY    14   5  67 N5        30.20R WCI   6
AUDUBON *      CLEAR     10   3  72 NW3       30.18R
CLARINDA *     CLOUDY    16  12  86 N8        30.23R WCI   5
COUNCIL BLFS * CLOUDY    14   7  73 N5        30.19R WCI   6
CRESTON *      CLOUDY    14   3  62 N13       30.17R WCI   0
HARLAN *       MOCLDY    12   9  85 NW7       30.23R WCI   2
LAMONI         CLOUDY    15   6  67 N12       30.16R WCI   2
RED OAK *      CLOUDY    14  10  85 N6        30.22R WCI   5
SHENANDOAH *   CLOUDY    16  10  79 N6        30.24R WCI   7
$$

IAZ047>049-059>061-072>074-084-041200-
   CENTRAL IOWA

CITY           SKY/WX    TMP DP  RH WIND       PRES   REMARKS
AMES           PTCLDY    11  -2  56 N15       30.18R WCI  -5
ANKENY *       CLOUDY    14   1  57 N9G16     30.20R WCI   2
BOONE *        MOCLDY    10   0  61 NW8       30.16R WCI  -1
CHARITON *     CLOUDY    16   5  62 N13       30.16R WCI   2
DES MOINES     PTCLDY    14   0  53 N12       30.19R WCI   0
GRINNELL *     PTSUNNY   12   2  66 NW18      30.15R WCI  -6
KNOXVILLE *    CLOUDY    14   1  57 N13G18    30.16S WCI   0
MARSHALLTOWN   CLOUDY    10  -1  61 NW17      30.16R WCI  -8
NEWTON *       CLOUDY    12   1  62 NW15G23   30.18R WCI  -4
PELLA *        PTCLDY    14   7  73 NW17      30.19R WCI  -3
PERRY *          N/A     12   3  67 N10       30.19R WCI  -1
$$

IAZ004>006-015-016-023>025-035-036-041200-
   NORTH CENTRAL IOWA

CITY           SKY/WX    TMP DP  RH WIND       PRES   REMARKS
ALGONA *       PTCLDY     7 N/A N/A NW12G18   30.16R WCI  -9
CLARION *      FAIR       7  -4  61 NW17      30.16R WCI -12
ESTHERVILLE    PTCLDY     2  -6  69 NW8       30.15R WCI -12
FORT DODGE *   PTCLDY     9  -4  56 NW7       30.18R WCI  -3
MASON CITY     PTCLDY     5  -4  66 NW18      30.14R WCI -15
FOREST CITY *  FAIR       7  -6  56 NW13      30.13R WCI  -9
WEBSTER CITY * PTCLDY     9   0  66 NW9       30.15R WCI  -5
IOWA FALLS *   FAIR       7  -2  67 NW17      30.15R WCI -12
$$

IAZ007>011-017>019-026>030-037>042-050>054-066-041200-
   NORTHEAST IOWA

CITY           SKY/WX    TMP DP  RH WIND       PRES   REMARKS
CEDAR RAPIDS   CLOUDY     7   2  80 NW9       30.12R WCI  -7
CHARLES CITY * CLOUDY     7  -2  66 NW14      30.12R WCI -10
CLINTON *      CLEAR      7   0  72 NW10      30.12R WCI  -8
DECORAH *      MOCLDY     5  -4  66 NW10G18   30.07R WCI -10
DUBUQUE          N/A    N/A N/A N/A MISG      30.06R
MONTICELLO *   CLOUDY    10   0  61 NW16      30.11R WCI  -7
OELWEIN *      CLOUDY     7  -2  66 NW20      30.10R WCI -13
WATERLOO       MOCLDY     7  -2  66 NW18      30.12R WCI -12
$$

IAZ064-065-067-068-078-041200-
   EAST CENTRAL IOWA

CITY           SKY/WX    TMP DP  RH WIND       PRES   REMARKS
DAVENPORT      CLEAR      9   0  67 NW12      30.11R WCI  -6
IOWA CITY      MOCLDY    10   2  69 NW12      30.16R WCI  -5
MT. PLEASANT * PTCLDY    11   2  66 NW13      30.15S WCI  -4
MUSCATINE *    MOCLDY    12   3  67 NW13      30.17R WCI  -3
QUAD CITIES    CLEAR     11   1  64 NW18G24   30.12R WCI  -7
$$

IAZ062-063-075>077-085>089-095>099-041200-
   SOUTHEAST IOWA

CITY           SKY/WX    TMP DP  RH WIND       PRES   REMARKS
BURLINGTON     CLEAR     12   3  67 NW13G23   30.13R WCI  -3
FAIRFIELD *    CLOUDY    12   1  62 NW16G24   30.15R WCI  -4
FORT MADISON * CLEAR     12   3  67 NW10      30.15R WCI  -1
KEOKUK *       CLEAR     14   5  67 NW10G18   30.14R WCI   1
OSKALOOSA *    CLOUDY    13   4  66 N18       30.17R WCI  -4
CENTERVILLE *  PTSUNNY   16   7  67 NW12      30.16R WCI   3
OTTUMWA        CLOUDY    14   4  64 N21       30.16R WCI  -4
WASHINGTON *   CLOUDY    12   7  79 NW15G22   30.16R WCI  -4
$$

ABBREVIATIONS USED IN REMARKS
   TC - TEMPERATURES IN CELSIUS
  WCI - WIND CHILL INDEX
   HX - HEAT INDEX
  VSB - VISIBILITY
$$



USA.gov is the U.S. government's official web portal to all federal, state and local government web resources and services.